Limpio, con algunas nubes bajas
Parcialmente nublado
Parcialmente nublado
Parcialmente nublado
Parcialmente nublado
Parcialmente nublado
Parcialmente nublado
(°C)
21°
21°
21°
21°
20°
20°
20°
20°
20°
20°
19°
19°
19°
19°
(°C)
23°
23°
22°
22°
22°
21°
21°
NNO
NO
NNO
N
N
N
N
(km/h)
3-6
3-8
3-8
3-9
4-9
4-10
4-9
(mm)
0
0
0
0
0
0
0
(%)
0
0
0
0
0
0
0

Elevación del sol

/ -50.9°
sun-icon
UV 6
07:52
19:53
Gibosa creciente (153°)
19:06
05:11

METAR a Alicante (LEAL)

Hora Condiciones Temperatura/
Punto de condensación
Viento Visibilidad Tiempo Nubes Presión Cambiar Bruto
VFR 22°C / 18°C 330º variable 290º to 010º 3kt 9700m - Clouds and Visibility OK 1020 No Significant change LEAL 262230Z 33003KT 290V010 CAVOK 22/18 Q1020 NOSIG
VFR 21°C / 18°C variable 2kt 9700m - Clouds and Visibility OK 1020 No Significant change LEAL 262200Z VRB02KT CAVOK 21/18 Q1020 NOSIG
VFR 21°C / 18°C variable 0kt 9700m - Clouds and Visibility OK 1020 No Significant change LEAL 262130Z 00000KT CAVOK 21/18 Q1020 NOSIG
VFR 21°C / 18°C variable 0kt 9700m - Clouds and Visibility OK 1020 No Significant change LEAL 262100Z 00000KT CAVOK 21/18 Q1020 NOSIG
VFR 22°C / 18°C variable 0kt 9700m - Clouds and Visibility OK 1020 No Significant change LEAL 262030Z 00000KT CAVOK 22/18 Q1020 NOSIG
VFR 22°C / 18°C variable 0kt 9700m - Clouds and Visibility OK 1020 No Significant change LEAL 262000Z 00000KT CAVOK 22/18 Q1020 NOSIG
VFR 22°C / 18°C variable 0kt 9700m - Clouds and Visibility OK 1020 No Significant change LEAL 261930Z 00000KT CAVOK 22/18 Q1020 NOSIG
VFR 23°C / 18°C variable 0kt 9700m - Few Clouds 4000ft 1020 No Significant change LEAL 261900Z 00000KT 9999 FEW040 23/18 Q1020 NOSIG
VFR 23°C / 19°C 110º variable 080º to 140º 3kt 9700m - Few Clouds 4000ft 1019 No Significant change LEAL 261830Z 11003KT 080V140 9999 FEW040 23/19 Q1019 NOSIG
VFR 24°C / 18°C 110º variable 080º to 140º 3kt 9700m - Few Clouds 4000ft 1019 No Significant change LEAL 261800Z 11003KT 080V140 9999 FEW040 24/18 Q1019 NOSIG
VFR 24°C / 18°C 110º variable 070º to 150º 4kt 9700m - Clouds and Visibility OK 1019 No Significant change LEAL 261730Z 11004KT 070V150 CAVOK 24/18 Q1019 NOSIG
VFR 25°C / 18°C 100º variable 070º to 150º 6kt 9700m - Few Clouds 3500ft 1019 No Significant change LEAL 261700Z 10006KT 070V150 9999 FEW035 25/18 Q1019 NOSIG
VFR 25°C / 18°C 110º variable 070º to 140º 5kt 9700m - Few Clouds 4000ft 1019 No Significant change LEAL 261630Z 11005KT 070V140 9999 FEW040 25/18 Q1019 NOSIG
VFR 26°C / 18°C 120º variable 080º to 160º 6kt 9700m - Few Clouds 3200ft 1019 No Significant change LEAL 261600Z 12006KT 080V160 9999 FEW032 26/18 Q1019 NOSIG
VFR 26°C / 18°C 100º variable 080º to 140º 7kt 9700m - Few Clouds 3200ft 1019 No Significant change LEAL 261530Z 10007KT 080V140 9999 FEW032 26/18 Q1019 NOSIG
VFR 26°C / 17°C 120º variable 080º to 170º 7kt 9700m - Few Clouds 3200ft 1019 No Significant change LEAL 261500Z 12007KT 080V170 9999 FEW032 26/17 Q1019 NOSIG
VFR 26°C / 17°C 120º variable 060º to 160º 7kt 9700m - Few Clouds 3200ft 1019 No Significant change LEAL 261430Z 12007KT 060V160 9999 FEW032 26/17 Q1019 NOSIG
VFR 26°C / 17°C 130º variable 090º to 180º 8kt 9700m - Few Clouds 3200ft 1019 No Significant change LEAL 261400Z 13008KT 090V180 9999 FEW032 26/17 Q1019 NOSIG
VFR 26°C / 17°C 110º variable 070º to 150º 8kt 9700m - Few Clouds 3200ft 1020 No Significant change LEAL 261330Z 11008KT 070V150 9999 FEW032 26/17 Q1020 NOSIG
VFR 26°C / 16°C 100º variable 060º to 150º 7kt 9700m - Few Clouds 3200ft 1020 No Significant change LEAL 261300Z 10007KT 060V150 9999 FEW032 26/16 Q1020 NOSIG
VFR 26°C / 17°C 110º variable 060º to 150º 7kt 9700m - Few Clouds 3200ft 1020 No Significant change LEAL 261230Z 11007KT 060V150 9999 FEW032 26/17 Q1020 NOSIG
VFR 26°C / 17°C 110º variable 070º to 150º 8kt 9700m - Scattered Clouds 3200ft 1020 No Significant change LEAL 261200Z 11008KT 070V150 9999 SCT032 26/17 Q1020 NOSIG
VFR 26°C / 17°C 90º variable 070º to 140º 7kt 9700m - Scattered Clouds 3200ft 1020 No Significant change LEAL 261130Z 09007KT 070V140 9999 SCT032 26/17 Q1020 NOSIG
VFR 26°C / 17°C 110º variable 060º to 210º 5kt 9700m - Few Clouds 3200ft 1021 No Significant change LEAL 261100Z 11005KT 060V210 9999 FEW032 26/17 Q1021 NOSIG

VFR

22°C / 18°C

[Más]
Viento 330º variable 290º to 010º 3kt
Visibilidad 9700m
Tiempo -
Nubes Clouds and Visibility OK
Presión 1020
Cambiar No Significant change
Bruto LEAL 262230Z 33003KT 290V010 CAVOK 22/18 Q1020 NOSIG

VFR

21°C / 18°C

[Más]
Viento variable 2kt
Visibilidad 9700m
Tiempo -
Nubes Clouds and Visibility OK
Presión 1020
Cambiar No Significant change
Bruto LEAL 262200Z VRB02KT CAVOK 21/18 Q1020 NOSIG

VFR

21°C / 18°C

[Más]
Viento variable 0kt
Visibilidad 9700m
Tiempo -
Nubes Clouds and Visibility OK
Presión 1020
Cambiar No Significant change
Bruto LEAL 262130Z 00000KT CAVOK 21/18 Q1020 NOSIG

VFR

21°C / 18°C

[Más]
Viento variable 0kt
Visibilidad 9700m
Tiempo -
Nubes Clouds and Visibility OK
Presión 1020
Cambiar No Significant change
Bruto LEAL 262100Z 00000KT CAVOK 21/18 Q1020 NOSIG

VFR

22°C / 18°C

[Más]
Viento variable 0kt
Visibilidad 9700m
Tiempo -
Nubes Clouds and Visibility OK
Presión 1020
Cambiar No Significant change
Bruto LEAL 262030Z 00000KT CAVOK 22/18 Q1020 NOSIG

VFR

22°C / 18°C

[Más]
Viento variable 0kt
Visibilidad 9700m
Tiempo -
Nubes Clouds and Visibility OK
Presión 1020
Cambiar No Significant change
Bruto LEAL 262000Z 00000KT CAVOK 22/18 Q1020 NOSIG

VFR

22°C / 18°C

[Más]
Viento variable 0kt
Visibilidad 9700m
Tiempo -
Nubes Clouds and Visibility OK
Presión 1020
Cambiar No Significant change
Bruto LEAL 261930Z 00000KT CAVOK 22/18 Q1020 NOSIG

VFR

23°C / 18°C

[Más]
Viento variable 0kt
Visibilidad 9700m
Tiempo -
Nubes Few Clouds 4000ft
Presión 1020
Cambiar No Significant change
Bruto LEAL 261900Z 00000KT 9999 FEW040 23/18 Q1020 NOSIG

VFR

23°C / 19°C

[Más]
Viento 110º variable 080º to 140º 3kt
Visibilidad 9700m
Tiempo -
Nubes Few Clouds 4000ft
Presión 1019
Cambiar No Significant change
Bruto LEAL 261830Z 11003KT 080V140 9999 FEW040 23/19 Q1019 NOSIG

VFR

24°C / 18°C

[Más]
Viento 110º variable 080º to 140º 3kt
Visibilidad 9700m
Tiempo -
Nubes Few Clouds 4000ft
Presión 1019
Cambiar No Significant change
Bruto LEAL 261800Z 11003KT 080V140 9999 FEW040 24/18 Q1019 NOSIG

VFR

24°C / 18°C

[Más]
Viento 110º variable 070º to 150º 4kt
Visibilidad 9700m
Tiempo -
Nubes Clouds and Visibility OK
Presión 1019
Cambiar No Significant change
Bruto LEAL 261730Z 11004KT 070V150 CAVOK 24/18 Q1019 NOSIG

VFR

25°C / 18°C

[Más]
Viento 100º variable 070º to 150º 6kt
Visibilidad 9700m
Tiempo -
Nubes Few Clouds 3500ft
Presión 1019
Cambiar No Significant change
Bruto LEAL 261700Z 10006KT 070V150 9999 FEW035 25/18 Q1019 NOSIG

VFR

25°C / 18°C

[Más]
Viento 110º variable 070º to 140º 5kt
Visibilidad 9700m
Tiempo -
Nubes Few Clouds 4000ft
Presión 1019
Cambiar No Significant change
Bruto LEAL 261630Z 11005KT 070V140 9999 FEW040 25/18 Q1019 NOSIG

VFR

26°C / 18°C

[Más]
Viento 120º variable 080º to 160º 6kt
Visibilidad 9700m
Tiempo -
Nubes Few Clouds 3200ft
Presión 1019
Cambiar No Significant change
Bruto LEAL 261600Z 12006KT 080V160 9999 FEW032 26/18 Q1019 NOSIG

VFR

26°C / 18°C

[Más]
Viento 100º variable 080º to 140º 7kt
Visibilidad 9700m
Tiempo -
Nubes Few Clouds 3200ft
Presión 1019
Cambiar No Significant change
Bruto LEAL 261530Z 10007KT 080V140 9999 FEW032 26/18 Q1019 NOSIG

VFR

26°C / 17°C

[Más]
Viento 120º variable 080º to 170º 7kt
Visibilidad 9700m
Tiempo -
Nubes Few Clouds 3200ft
Presión 1019
Cambiar No Significant change
Bruto LEAL 261500Z 12007KT 080V170 9999 FEW032 26/17 Q1019 NOSIG

VFR

26°C / 17°C

[Más]
Viento 120º variable 060º to 160º 7kt
Visibilidad 9700m
Tiempo -
Nubes Few Clouds 3200ft
Presión 1019
Cambiar No Significant change
Bruto LEAL 261430Z 12007KT 060V160 9999 FEW032 26/17 Q1019 NOSIG

VFR

26°C / 17°C

[Más]
Viento 130º variable 090º to 180º 8kt
Visibilidad 9700m
Tiempo -
Nubes Few Clouds 3200ft
Presión 1019
Cambiar No Significant change
Bruto LEAL 261400Z 13008KT 090V180 9999 FEW032 26/17 Q1019 NOSIG

VFR

26°C / 17°C

[Más]
Viento 110º variable 070º to 150º 8kt
Visibilidad 9700m
Tiempo -
Nubes Few Clouds 3200ft
Presión 1020
Cambiar No Significant change
Bruto LEAL 261330Z 11008KT 070V150 9999 FEW032 26/17 Q1020 NOSIG

VFR

26°C / 16°C

[Más]
Viento 100º variable 060º to 150º 7kt
Visibilidad 9700m
Tiempo -
Nubes Few Clouds 3200ft
Presión 1020
Cambiar No Significant change
Bruto LEAL 261300Z 10007KT 060V150 9999 FEW032 26/16 Q1020 NOSIG

VFR

26°C / 17°C

[Más]
Viento 110º variable 060º to 150º 7kt
Visibilidad 9700m
Tiempo -
Nubes Few Clouds 3200ft
Presión 1020
Cambiar No Significant change
Bruto LEAL 261230Z 11007KT 060V150 9999 FEW032 26/17 Q1020 NOSIG

VFR

26°C / 17°C

[Más]
Viento 110º variable 070º to 150º 8kt
Visibilidad 9700m
Tiempo -
Nubes Scattered Clouds 3200ft
Presión 1020
Cambiar No Significant change
Bruto LEAL 261200Z 11008KT 070V150 9999 SCT032 26/17 Q1020 NOSIG

VFR

26°C / 17°C

[Más]
Viento 90º variable 070º to 140º 7kt
Visibilidad 9700m
Tiempo -
Nubes Scattered Clouds 3200ft
Presión 1020
Cambiar No Significant change
Bruto LEAL 261130Z 09007KT 070V140 9999 SCT032 26/17 Q1020 NOSIG

VFR

26°C / 17°C

[Más]
Viento 110º variable 060º to 210º 5kt
Visibilidad 9700m
Tiempo -
Nubes Few Clouds 3200ft
Presión 1021
Cambiar No Significant change
Bruto LEAL 261100Z 11005KT 060V210 9999 FEW032 26/17 Q1021 NOSIG

TAF a Alicante (LEAL)

From till


Maximum Temperature 27ºC on . Minimum Temperature 18ºC on .
From till Wind variable 4kt. Visibility 10km or more. Few Clouds 2000ft.
With 40% probability, Temporarly from till Wind 130º 10kt.

Bruto: TAF LEAL 261700Z 2618/2718 VRB04KT 9999 FEW020 TX27/2713Z TN18/2706Z PROB40 TEMPO 2712/2716 13010KT

Radar y precipitación nowcast para Alicante

llovizna
Leve
Moderado
Fuerte
Muy fuerte
Granizo

El marcador del lugar se coloca en Alicante. Esta animación muestra el radar de precipitación para el intervalo de tiempo seleccionado, así como una previsión de 2h. Las cruces naranjas indican rayos. Datos proporcionados por nowcast.de (disponibles en EE.UU., Europa y Australia). La llovizna o una ligera nevada pueden ser invisibles para el radar. La intensidad de la precipitación está codificada por colores, del turquesa al rojo.

Imágenes actuales de satélite y lluvia para Alicante, España

El marcador del lugar se coloca en Alicante. [Más]

La imagen de satélite en tiempo real se aprovecha de la combinación de bandas de la luz visible y de la luz infrarroja. Cómo se pueden detectar cambios de temperaturas a través de la banda infrarrojo, la imagen no aparece oscura de noche. No obstante, la niebla y las nubes bajas son apenas visibles en las imágenes de infrarrojo ya que las diferencias de temperaturas entre el suelo y la niebla son muy pequeñas, por eso, son casi invisibles durante la noche. Las imágenes de satélite del Meteosat (Europa) son actualizados en tiempo real cada 5 minutos. Las imágenes del GOES-16/GOES-17 (América del Norte y América del Sur) y Himawari (Asia) son actualizadas cada 10 minutos.

La precipitación se estima a partir del radar y de los satélites. Las estimaciones de la precipitación desde los satélites son menos precisas durante la noche que durante el día.

© 2023 meteoblue, NOAA Satellites GOES-16 and EUMETSAT. Datos de relámpagos proporcionados por nowcast.

Volver al principio